Location: Brookfield Center
(41.2406°N, 80.5579°W)
Time: 12:11:48
(UTC+00:00)

COSMOS 2455 - Pass Details

Date: 18 January 2020
Orbit: 902 x 907 km, 67.1° (Epoch: 17 February)

Event Time Altitude Azimuth Distance (km) Brightness Sun altitude
Rises 11:19:07 0° 209° (SSW) 3,513 5.8 -15.8°
Reaches altitude 10° 11:21:36 10° 210° (SSW) 2,576 5.1 -15.4°
Maximum altitude 11:27:36 85° 298° (WNW) 914 2.8 -14.3°
Drops below altitude 10° 11:33:39 10° 28° (NNE) 2,595 5.4 -13.2°
Sets 11:36:10 0° 29° (NNE) 3,540 6.1 -12.7°
